Location: Ferintosh
(52.7647°N, 112.9692°W)
Time: 13:34:18
(UTC+00:00)

Transit 2A Rocket - Pass Details

Date: 25 May 2024
Orbit: 583 x 910 km, 66.7° (Epoch: 22 June)

Event Time Altitude Azimuth Distance (km) Brightness Sun altitude
Rises 14:47:03 0° 295° (WNW) 3,220 7.7 28.4°
Reaches altitude 10° 14:50:03 10° 313° (NW) 2,358 7.2 28.8°
Maximum altitude 14:53:58 20° 359° (N) 1,851 7.1 29.4°
Drops below altitude 10° 14:58:06 10° 45° (NE) 2,503 8.3 30.1°
Sets 15:01:24 0° 62° (ENE) 3,486 9.2 30.6°
